QPF
0.00 0.01 0.03 0.05 0.11 0.14 0.11 0.05 0.03 0.02 0.01 0.02 0.02 0.02 0.02 0.03 0.08 0.14 0.18 0.19 0.18 0.17 0.18 0.16 0.12 0.09 0.09 0.08 0.07 0.07 0.07 0.06 0.07 0.07 0.05 0.04 0.05 0.06 0.07 0.07 0.05 0.06 0.06 0.06 0.08 0.09 0.10 0.08 0.10
0.00 0.02 0.04 0.08 0.14 0.11 0.07 0.03 0.01 0.01 0.02 0.02 0.01 0.01 0.01 0.02 0.05 0.10 0.16 0.17 0.16 0.15 0.12 0.11 0.09 0.08 0.08 0.06 0.06 0.06 0.07 0.07 0.07 0.07 0.05 0.05 0.05 0.07 0.08 0.07 0.05 0.05 0.06 0.04 0.04 0.03 0.04 0.06 0.07
0.01 0.01 0.05 0.11 0.12 0.09 0.05 0.02 0.00 0.01 0.01 0.01 0.01 0.01 0.01 0.04 0.07 0.12 0.13 0.15 0.14 0.13 0.12 0.10 0.08 0.07 0.08 0.07 0.08 0.10 0.08 0.07 0.07 0.06 0.06 0.06 0.05 0.05 0.06 0.07 0.06 0.05 0.06 0.05 0.04 0.04 0.04 0.04 0.05
0.01 0.04 0.06 0.09 0.09 0.07 0.03 0.01 0.00 0.00 0.00 0.00 0.01 0.01 0.03 0.05 0.08 0.10 0.09 0.09 0.10 0.11 0.12 0.10 0.08 0.06 0.05 0.04 0.04 0.06 0.07 0.07 0.07 0.06 0.06 0.06 0.06 0.05 0.05 0.06 0.07 0.06 0.06 0.05 0.03 0.04 0.04 0.04 0.03
0.02 0.07 0.09 0.07 0.06 0.03 0.00 0.00 0.00 0.00 0.00 0.00 0.00 0.01 0.04 0.06 0.05 0.05 0.05 0.05 0.08 0.10 0.09 0.07 0.05 0.04 0.04 0.04 0.04 0.04 0.04 0.05 0.06 0.05 0.03 0.04 0.03 0.04 0.05 0.06 0.07 0.07 0.07 0.06 0.04 0.04 0.04 0.03 0.03
0.04 0.08 0.07 0.05 0.04 0.01 0.00 0.00 0.00 0.00 0.00 0.00 0.00 0.01 0.06 0.10 0.09 0.05 0.03 0.04 0.06 0.08 0.06 0.04 0.03 0.02 0.03 0.03 0.03 0.03 0.02 0.03 0.04 0.05 0.04 0.03 0.03 0.03 0.04 0.06 0.06 0.08 0.08 0.08 0.08 0.06 0.06 0.03 0.03
0.04 0.07 0.05 0.03 0.04 0.04 0.01 0.00 0.00 0.00 0.01 0.01 0.01 0.03 0.10 0.12 0.08 0.04 0.03 0.04 0.06 0.09 0.05 0.04 0.03 0.02 0.03 0.03 0.03 0.03 0.02 0.03 0.05 0.06 0.05 0.04 0.03 0.03 0.04 0.04 0.04 0.06 0.07 0.06 0.08 0.10 0.09 0.07 0.05
0.01 0.03 0.03 0.03 0.04 0.05 0.01 0.01 0.00 0.01 0.01 0.01 0.01 0.02 0.08 0.07 0.03 0.02 0.02 0.03 0.05 0.06 0.04 0.04 0.03 0.03 0.03 0.03 0.03 0.02 0.03 0.04 0.06 0.08 0.11 0.15 0.09 0.04 0.03 0.02 0.04 0.07 0.07 0.05 0.05 0.07 0.08 0.07 0.05
0.02 0.04 0.04 0.03 0.03 0.03 0.01 0.01 0.01 0.02 0.02 0.02 0.02 0.02 0.04 0.04 0.02 0.02 0.02 0.03 0.03 0.03 0.02 0.03 0.03 0.03 0.02 0.02 0.02 0.03 0.04 0.05 0.07 0.09 0.18 0.28 0.24 0.10 0.06 0.03 0.03 0.05 0.05 0.06 0.06 0.06 0.07 0.07 0.06
0.04 0.07 0.04 0.01 0.01 0.01 0.00 0.00 0.01 0.01 0.01 0.02 0.03 0.04 0.04 0.02 0.02 0.02 0.04 0.05 0.03 0.02 0.02 0.02 0.02 0.03 0.03 0.01 0.02 0.03 0.03 0.05 0.07 0.10 0.13 0.11 0.13 0.10 0.07 0.06 0.05 0.05 0.07 0.08 0.09 0.09 0.08 0.08 0.09
0.01 0.04 0.03 0.01 0.00 0.00 0.00 0.01 0.00 0.00 0.01 0.01 0.02 0.01 0.01 0.00 0.01 0.02 0.03 0.04 0.04 0.03 0.02 0.02 0.03 0.06 0.05 0.04 0.03 0.04 0.04 0.05 0.06 0.08 0.08 0.08 0.10 0.07 0.07 0.08 0.07 0.10 0.12 0.14 0.16 0.15 0.15 0.13 0.09
0.01 0.01 0.01 0.00 0.00 0.00 0.01 0.00 0.00 0.00 0.01 0.00 0.00 0.00 0.00 0.00 0.00 0.01 0.01 0.01 0.02 0.03 0.04 0.03 0.03 0.05 0.06 0.05 0.04 0.03 0.04 0.04 0.04 0.07 0.06 0.06 0.07 0.07 0.07 0.09 0.09 0.09 0.12 0.14 0.15 0.19 0.21 0.16 0.11
0.01 0.01 0.00 0.00 0.00 0.00 0.00 0.00 0.00 0.00 0.00 0.00 0.00 0.00 0.00 0.00 0.00 0.00 0.00 0.01 0.01 0.01 0.03 0.04 0.03 0.03 0.05 0.06 0.05 0.03 0.04 0.03 0.03 0.05 0.05 0.06 0.05 0.06 0.07 0.08 0.07 0.07 0.08 0.12 0.16 0.17 0.21 0.19 0.15
0.01 0.01 0.00 0.00 0.00 0.00 0.00 0.00 0.00 0.00 0.00 0.00 0.00 0.00 0.00 0.00 0.00 0.00 0.00 0.01 0.01 0.01 0.02 0.03 0.03 0.03 0.04 0.04 0.04 0.04 0.03 0.04 0.03 0.04 0.03 0.04 0.04 0.05 0.06 0.06 0.08 0.08 0.08 0.10 0.13 0.13 0.18 0.18 0.17
0.00 0.01 0.01 0.00 0.00 0.00 0.00 0.01 0.00 0.00 0.00 0.00 0.00 0.00 0.00 0.00 0.00 0.00 0.01 0.01 0.01 0.01 0.01 0.02 0.03 0.04 0.04 0.04 0.03 0.02 0.02 0.02 0.02 0.03 0.04 0.04 0.04 0.06 0.07 0.08 0.09 0.10 0.12 0.11 0.09 0.09 0.13 0.13 0.13
0.01 0.01 0.01 0.00 0.00 0.00 0.01 0.03 0.01 0.01 0.00 0.00 0.00 0.00 0.00 0.00 0.00 0.00 0.01 0.01 0.01 0.01 0.01 0.01 0.01 0.02 0.02 0.03 0.03 0.02 0.02 0.02 0.03 0.04 0.04 0.04 0.04 0.05 0.07 0.08 0.09 0.09 0.10 0.09 0.08 0.10 0.12 0.13 0.13
0.02 0.01 0.01 0.00 0.00 0.01 0.01 0.03 0.01 0.01 0.00 0.00 0.00 0.00 0.00 0.00 0.00 0.00 0.00 0.01 0.01 0.01 0.01 0.01 0.01 0.01 0.02 0.03 0.03 0.03 0.03 0.02 0.02 0.03 0.03 0.03 0.03 0.04 0.06 0.08 0.10 0.09 0.08 0.08 0.08 0.11 0.12 0.13 0.13
0.01 0.01 0.01 0.00 0.00 0.01 0.01 0.01 0.00 0.00 0.00 0.00 0.00 0.00 0.00 0.00 0.00 0.00 0.00 0.01 0.01 0.01 0.01 0.01 0.01 0.02 0.03 0.03 0.03 0.03 0.03 0.02 0.02 0.02 0.03 0.03 0.05 0.04 0.04 0.07 0.06 0.07 0.08 0.09 0.09 0.09 0.10 0.11 0.09
0.00 0.00 0.00 0.01 0.00 0.00 0.00 0.00 0.00 0.01 0.01 0.00 0.00 0.00 0.00 0.00 0.00 0.00 0.00 0.01 0.01 0.01 0.01 0.01 0.01 0.02 0.04 0.04 0.03 0.04 0.04 0.04 0.03 0.03 0.04 0.06 0.06 0.05 0.05 0.06 0.07 0.06 0.08 0.09 0.08 0.10 0.10 0.10 0.09
0.01 0.01 0.01 0.00 0.00 0.00 0.00 0.00 0.00 0.00 0.00 0.00 0.00 0.00 0.00 0.00 0.00 0.00 0.00 0.01 0.01 0.01 0.01 0.00 0.01 0.03 0.03 0.04 0.04 0.04 0.05 0.04 0.04 0.03 0.06 0.07 0.07 0.06 0.06 0.08 0.07 0.07 0.09 0.10 0.11 0.12 0.14 0.13 0.11
0.00 0.00 0.01 0.00 0.00 0.00 0.02 0.03 0.00 0.00 0.00 0.00 0.00 0.00 0.00 0.00 0.00 0.00 0.00 0.00 0.01 0.00 0.00 0.01 0.01 0.02 0.03 0.04 0.04 0.05 0.06 0.06 0.05 0.04 0.04 0.05 0.06 0.06 0.07 0.08 0.09 0.10 0.10 0.12 0.12 0.11 0.12 0.11 0.13
0.01 0.00 0.00 0.00 0.01 0.02 0.02 0.03 0.01 0.00 0.00 0.00 0.00 0.00 0.00 0.00 0.00 0.00 0.00 0.01 0.01 0.00 0.00 0.01 0.02 0.03 0.03 0.04 0.05 0.05 0.04 0.04 0.04 0.04 0.04 0.04 0.05 0.08 0.09 0.10 0.10 0.10 0.11 0.12 0.10 0.12 0.12 0.11 0.10
0.01 0.00 0.00 0.01 0.03 0.03 0.02 0.03 0.02 0.01 0.01 0.00 0.00 0.00 0.00 0.00 0.00 0.01 0.01 0.01 0.01 0.01 0.01 0.01 0.02 0.02 0.02 0.02 0.04 0.04 0.03 0.03 0.04 0.04 0.04 0.05 0.06 0.07 0.08 0.09 0.08 0.08 0.11 0.12 0.11 0.12 0.10 0.09 0.08
0.00 0.00 0.00 0.01 0.04 0.04 0.02 0.02 0.03 0.02 0.02 0.01 0.01 0.00 0.00 0.00 0.00 0.01 0.01 0.01 0.01 0.01 0.01 0.01 0.01 0.01 0.01 0.02 0.03 0.04 0.04 0.05 0.05 0.05 0.04 0.05 0.06 0.06 0.08 0.10 0.07 0.08 0.11 0.11 0.09 0.09 0.09 0.10 0.08
0.00 0.00 0.02 0.03 0.05 0.05 0.01 0.01 0.03 0.02 0.00 0.01 0.02 0.00 0.00 0.00 0.00 0.00 0.00 0.01 0.01 0.01 0.01 0.01 0.01 0.02 0.02 0.02 0.02 0.03 0.03 0.04 0.05 0.05 0.04 0.04 0.05 0.05 0.07 0.07 0.07 0.07 0.08 0.09 0.10 0.10 0.11 0.12 0.11
0.00 0.00 0.02 0.03 0.03 0.04 0.02 0.02 0.03 0.04 0.01 0.01 0.02 0.01 0.01 0.00 0.00 0.00 0.00 0.00 0.00 0.01 0.01 0.01 0.01 0.02 0.02 0.03 0.03 0.03 0.02 0.03 0.03 0.04 0.03 0.03 0.03 0.03 0.04 0.04 0.06 0.05 0.05 0.06 0.09 0.10 0.10 0.11 0.11
0.00 0.00 0.02 0.01 0.01 0.02 0.02 0.02 0.04 0.04 0.01 0.01 0.01 0.01 0.01 0.01 0.01 0.01 0.01 0.00 0.00 0.00 0.00 0.01 0.01 0.02 0.03 0.04 0.04 0.03 0.02 0.03 0.03 0.03 0.02 0.02 0.03 0.03 0.04 0.04 0.05 0.05 0.05 0.05 0.07 0.09 0.09 0.10 0.09
0.00 0.00 0.01 0.02 0.01 0.02 0.02 0.03 0.06 0.07 0.03 0.01 0.01 0.01 0.01 0.00 0.01 0.01 0.01 0.00 0.00 0.00 0.00 0.00 0.00 0.01 0.02 0.03 0.04 0.04 0.04 0.04 0.04 0.04 0.04 0.03 0.03 0.03 0.03 0.03 0.03 0.04 0.04 0.05 0.06 0.05 0.05 0.05 0.05
0.00 0.00 0.00 0.01 0.01 0.01 0.03 0.03 0.04 0.05 0.02 0.01 0.01 0.01 0.01 0.00 0.00 0.00 0.00 0.00 0.01 0.01 0.00 0.00 0.00 0.00 0.01 0.02 0.03 0.04 0.04 0.04 0.05 0.06 0.05 0.04 0.04 0.04 0.04 0.04 0.04 0.04 0.03 0.03 0.03 0.04 0.04 0.05 0.05
0.00 0.00 0.00 0.01 0.01 0.01 0.01 0.02 0.02 0.01 0.02 0.01 0.01 0.00 0.00 0.00 0.00 0.00 0.00 0.00 0.00 0.01 0.01 0.01 0.01 0.01 0.01 0.02 0.02 0.03 0.04 0.05 0.06 0.06 0.05 0.05 0.05 0.04 0.06 0.06 0.06 0.05 0.05 0.04 0.03 0.02 0.03 0.04 0.04
MSLP
1007.14 1007.84 1008.51 1008.99 1009.17 1008.96 1008.41 1007.59 1006.67 1005.85 1005.28 1005.08 1005.28 1005.84 1006.64 1007.52 1008.32 1008.91 1009.24 1009.31 1009.20 1009.01 1008.85 1008.80 1008.91 1009.16 1009.51 1009.90 1010.28 1010.60 1010.86 1011.09 1011.32 1011.60 1011.95 1012.37 1012.83 1013.29 1013.70 1014.02 1014.25 1014.38 1014.46 1014.52 1014.59 1014.69 1014.80 1014.93 1015.04
1007.26 1008.02 1008.66 1009.03 1009.03 1008.64 1007.92 1007.00 1006.05 1005.27 1004.82 1004.76 1005.11 1005.78 1006.63 1007.51 1008.26 1008.79 1009.06 1009.12 1009.04 1008.93 1008.88 1008.96 1009.20 1009.55 1009.96 1010.37 1010.72 1011.00 1011.20 1011.38 1011.57 1011.81 1012.14 1012.53 1012.97 1013.39 1013.76 1014.04 1014.23 1014.36 1014.44 1014.52 1014.62 1014.76 1014.92 1015.07 1015.19
1007.44 1008.21 1008.78 1009.01 1008.83 1008.27 1007.41 1006.42 1005.48 1004.79 1004.47 1004.56 1005.04 1005.79 1006.67 1007.52 1008.20 1008.64 1008.84 1008.86 1008.81 1008.78 1008.86 1009.09 1009.47 1009.95 1010.44 1010.89 1011.25 1011.49 1011.66 1011.79 1011.93 1012.14 1012.42 1012.77 1013.15 1013.52 1013.84 1014.08 1014.24 1014.36 1014.45 1014.57 1014.71 1014.90 1015.09 1015.27 1015.39
1007.61 1008.34 1008.79 1008.87 1008.52 1007.81 1006.85 1005.84 1004.95 1004.38 1004.21 1004.46 1005.06 1005.88 1006.76 1007.55 1008.14 1008.47 1008.60 1008.60 1008.57 1008.62 1008.83 1009.21 1009.73 1010.33 1010.91 1011.42 1011.79 1012.03 1012.17 1012.27 1012.38 1012.55 1012.79 1013.09 1013.42 1013.73 1013.99 1014.18 1014.32 1014.43 1014.55 1014.70 1014.89 1015.11 1015.33 1015.52 1015.64
1007.68 1008.31 1008.61 1008.52 1008.02 1007.19 1006.19 1005.21 1004.44 1004.02 1004.02 1004.43 1005.14 1006.01 1006.88 1007.60 1008.09 1008.33 1008.39 1008.36 1008.36 1008.49 1008.81 1009.32 1009.96 1010.67 1011.33 1011.87 1012.27 1012.51 1012.65 1012.73 1012.82 1012.97 1013.18 1013.44 1013.72 1013.98 1014.20 1014.36 1014.48 1014.59 1014.72 1014.90 1015.12 1015.37 1015.61 1015.80 1015.89
1007.59 1008.06 1008.18 1007.92 1007.29 1006.40 1005.42 1004.53 1003.90 1003.68 1003.87 1004.44 1005.26 1006.17 1007.02 1007.68 1008.08 1008.24 1008.24 1008.19 1008.22 1008.41 1008.82 1009.41 1010.14 1010.91 1011.61 1012.18 1012.59 1012.84 1012.98 1013.07 1013.16 1013.31 1013.51 1013.76 1014.01 1014.24 1014.42 1014.56 1014.67 1014.78 1014.92 1015.12 1015.36 1015.62 1015.86 1016.03 1016.09
1007.30 1007.58 1007.51 1007.08 1006.35 1005.45 1004.53 1003.79 1003.36 1003.35 1003.74 1004.46 1005.38 1006.33 1007.16 1007.77 1008.11 1008.21 1008.18 1008.13 1008.18 1008.41 1008.86 1009.50 1010.25 1011.03 1011.73 1012.29 1012.68 1012.93 1013.08 1013.18 1013.31 1013.48 1013.70 1013.95 1014.21 1014.43 1014.60 1014.72 1014.82 1014.93 1015.08 1015.28 1015.52 1015.77 1015.99 1016.13 1016.16
1006.88 1006.93 1006.66 1006.09 1005.30 1004.42 1003.62 1003.05 1002.84 1003.04 1003.63 1004.49 1005.50 1006.48 1007.30 1007.87 1008.17 1008.25 1008.20 1008.16 1008.23 1008.48 1008.94 1009.57 1010.29 1011.02 1011.67 1012.18 1012.54 1012.77 1012.93 1013.06 1013.23 1013.44 1013.70 1013.99 1014.26 1014.48 1014.65 1014.77 1014.86 1014.96 1015.11 1015.30 1015.53 1015.77 1015.96 1016.07 1016.07
1006.39 1006.23 1005.77 1005.08 1004.26 1003.44 1002.77 1002.40 1002.40 1002.80 1003.55 1004.54 1005.61 1006.61 1007.42 1007.97 1008.25 1008.33 1008.30 1008.27 1008.36 1008.61 1009.05 1009.63 1010.28 1010.92 1011.48 1011.91 1012.21 1012.42 1012.58 1012.75 1012.96 1013.22 1013.53 1013.85 1014.15 1014.39 1014.57 1014.68 1014.76 1014.86 1014.98 1015.16 1015.37 1015.58 1015.75 1015.83 1015.81
1005.97 1005.61 1005.00 1004.22 1003.39 1002.65 1002.12 1001.92 1002.10 1002.67 1003.54 1004.60 1005.70 1006.70 1007.49 1008.03 1008.32 1008.41 1008.42 1008.43 1008.54 1008.79 1009.19 1009.69 1010.24 1010.77 1011.22 1011.56 1011.80 1011.97 1012.13 1012.32 1012.57 1012.89 1013.24 1013.60 1013.92 1014.18 1014.36 1014.47 1014.54 1014.62 1014.72 1014.87 1015.05 1015.24 1015.38 1015.45 1015.41
1005.71 1005.19 1004.47 1003.64 1002.82 1002.15 1001.75 1001.69 1002.00 1002.67 1003.60 1004.68 1005.76 1006.73 1007.49 1008.02 1008.32 1008.45 1008.51 1008.57 1008.71 1008.96 1009.32 1009.76 1010.21 1010.63 1010.97 1011.22 1011.40 1011.54 1011.70 1011.91 1012.19 1012.53 1012.92 1013.30 1013.63 1013.90 1014.07 1014.18 1014.24 1014.30 1014.38 1014.50 1014.66 1014.82 1014.94 1014.99 1014.95
1005.66 1005.04 1004.25 1003.40 1002.62 1002.02 1001.70 1001.73 1002.11 1002.81 1003.73 1004.75 1005.76 1006.67 1007.38 1007.90 1008.22 1008.40 1008.52 1008.65 1008.83 1009.10 1009.44 1009.82 1010.20 1010.53 1010.79 1010.98 1011.11 1011.24 1011.39 1011.61 1011.90 1012.25 1012.64 1013.02 1013.36 1013.61 1013.78 1013.87 1013.92 1013.97 1014.03 1014.13 1014.26 1014.39 1014.49 1014.53 1014.49
1005.82 1005.16 1004.35 1003.51 1002.76 1002.22 1001.96 1002.02 1002.40 1003.05 1003.88 1004.80 1005.69 1006.50 1007.15 1007.64 1007.98 1008.21 1008.40 1008.60 1008.84 1009.14 1009.49 1009.85 1010.19 1010.48 1010.70 1010.86 1010.98 1011.10 1011.25 1011.47 1011.75 1012.10 1012.46 1012.82 1013.13 1013.37 1013.52 1013.61 1013.65 1013.68 1013.73 1013.82 1013.92 1014.03 1014.11 1014.14 1014.09
1006.13 1005.47 1004.68 1003.89 1003.19 1002.70 1002.46 1002.50 1002.81 1003.35 1004.04 1004.79 1005.53 1006.21 1006.78 1007.24 1007.59 1007.88 1008.14 1008.41 1008.72 1009.07 1009.44 1009.81 1010.16 1010.45 1010.68 1010.85 1010.99 1011.13 1011.29 1011.49 1011.75 1012.06 1012.38 1012.70 1012.97 1013.18 1013.31 1013.40 1013.44 1013.48 1013.53 1013.60 1013.68 1013.77 1013.83 1013.84 1013.78
1006.46 1005.84 1005.12 1004.39 1003.76 1003.31 1003.07 1003.06 1003.26 1003.65 1004.15 1004.71 1005.28 1005.81 1006.30 1006.72 1007.08 1007.42 1007.75 1008.09 1008.47 1008.87 1009.28 1009.69 1010.07 1010.40 1010.68 1010.90 1011.08 1011.24 1011.41 1011.61 1011.83 1012.08 1012.35 1012.60 1012.83 1013.01 1013.14 1013.23 1013.29 1013.34 1013.40 1013.47 1013.54 1013.61 1013.65 1013.64 1013.55
1006.69 1006.15 1005.52 1004.89 1004.35 1003.94 1003.70 1003.62 1003.69 1003.90 1004.20 1004.55 1004.94 1005.34 1005.73 1006.12 1006.50 1006.88 1007.26 1007.67 1008.10 1008.55 1009.01 1009.47 1009.90 1010.29 1010.64 1010.92 1011.17 1011.37 1011.55 1011.72 1011.90 1012.09 1012.29 1012.49 1012.67 1012.83 1012.96 1013.07 1013.16 1013.23 1013.31 1013.38 1013.45 1013.51 1013.53 1013.49 1013.38
1006.73 1006.29 1005.78 1005.29 1004.85 1004.51 1004.26 1004.12 1004.06 1004.08 1004.17 1004.33 1004.55 1004.82 1005.13 1005.49 1005.88 1006.30 1006.74 1007.19 1007.66 1008.15 1008.65 1009.15 1009.64 1010.10 1010.51 1010.88 1011.18 1011.42 1011.61 1011.77 1011.90 1012.03 1012.16 1012.30 1012.44 1012.59 1012.74 1012.87 1013.00 1013.11 1013.21 1013.30 1013.37 1013.41 1013.41 1013.36 1013.24
1006.54 1006.21 1005.86 1005.53 1005.23 1004.97 1004.74 1004.53 1004.34 1004.18 1004.08 1004.05 1004.11 1004.27 1004.52 1004.86 1005.27 1005.72 1006.20 1006.69 1007.19 1007.71 1008.23 1008.76 1009.30 1009.81 1010.30 1010.73 1011.09 1011.37 1011.57 1011.70 1011.79 1011.86 1011.93 1012.02 1012.13 1012.28 1012.44 1012.62 1012.79 1012.94 1013.07 1013.17 1013.25 1013.28 1013.28 1013.23 1013.11
1006.12 1005.94 1005.78 1005.64 1005.50 1005.34 1005.13 1004.86 1004.55 1004.22 1003.93 1003.72 1003.63 1003.69 1003.89 1004.22 1004.65 1005.14 1005.66 1006.19 1006.71 1007.24 1007.78 1008.33 1008.90 1009.46 1010.00 1010.49 1010.90 1011.21 1011.41 1011.52 1011.57 1011.59 1011.61 1011.66 1011.76 1011.91 1012.10 1012.31 1012.52 1012.72 1012.87 1012.99 1013.07 1013.11 1013.11 1013.07 1012.97
1005.54 1005.53 1005.59 1005.66 1005.70 1005.65 1005.47 1005.14 1004.70 1004.20 1003.72 1003.34 1003.11 1003.07 1003.23 1003.56 1004.01 1004.54 1005.10 1005.66 1006.21 1006.75 1007.30 1007.87 1008.46 1009.06 1009.65 1010.18 1010.63 1010.96 1011.18 1011.27 1011.29 1011.26 1011.24 1011.26 1011.35 1011.51 1011.73 1011.98 1012.23 1012.45 1012.63 1012.77 1012.85 1012.90 1012.91 1012.90 1012.85
1004.89 1005.09 1005.38 1005.68 1005.90 1005.96 1005.79 1005.40 1004.82 1004.14 1003.46 1002.89 1002.51 1002.37 1002.48 1002.80 1003.28 1003.86 1004.46 1005.06 1005.64 1006.21 1006.78 1007.37 1007.99 1008.63 1009.26 1009.84 1010.32 1010.68 1010.90 1010.99 1010.98 1010.93 1010.88 1010.88 1010.97 1011.13 1011.37 1011.65 1011.93 1012.18 1012.38 1012.52 1012.61 1012.67 1012.71 1012.73 1012.74
1004.24 1004.68 1005.22 1005.75 1006.14 1006.28 1006.11 1005.63 1004.90 1004.02 1003.13 1002.36 1001.82 1001.57 1001.62 1001.92 1002.43 1003.04 1003.70 1004.35 1004.97 1005.58 1006.18 1006.81 1007.47 1008.16 1008.83 1009.46 1009.98 1010.37 1010.61 1010.70 1010.69 1010.62 1010.56 1010.55 1010.63 1010.81 1011.06 1011.36 1011.66 1011.93 1012.14 1012.29 1012.39 1012.46 1012.52 1012.58 1012.66
1003.67 1004.36 1005.15 1005.89 1006.42 1006.62 1006.42 1005.83 1004.92 1003.83 1002.72 1001.75 1001.04 1000.67 1000.64 1000.92 1001.42 1002.07 1002.77 1003.48 1004.15 1004.81 1005.47 1006.15 1006.87 1007.61 1008.35 1009.03 1009.61 1010.04 1010.30 1010.41 1010.40 1010.33 1010.27 1010.26 1010.34 1010.53 1010.80 1011.11 1011.43 1011.72 1011.94 1012.09 1012.20 1012.28 1012.36 1012.47 1012.59
1003.19 1004.12 1005.14 1006.05 1006.69 1006.91 1006.66 1005.94 1004.86 1003.56 1002.24 1001.08 1000.21 999.71 999.59 999.82 1000.32 1000.98 1001.71 1002.46 1003.19 1003.90 1004.62 1005.37 1006.15 1006.96 1007.77 1008.51 1009.15 1009.63 1009.94 1010.08 1010.09 1010.04 1009.98 1009.98 1010.08 1010.28 1010.56 1010.90 1011.24 1011.54 1011.78 1011.94 1012.05 1012.14 1012.24 1012.37 1012.54
1002.79 1003.94 1005.13 1006.17 1006.87 1007.08 1006.76 1005.92 1004.69 1003.22 1001.72 1000.40 999.38 998.77 998.56 998.73 999.19 999.83 1000.57 1001.34 1002.10 1002.86 1003.63 1004.44 1005.29 1006.18 1007.05 1007.87 1008.58 1009.12 1009.48 1009.67 1009.72 1009.69 1009.66 1009.69 1009.80 1010.03 1010.34 1010.70 1011.07 1011.39 1011.65 1011.83 1011.96 1012.05 1012.15 1012.29 1012.47
1002.43 1003.74 1005.05 1006.15 1006.86 1007.04 1006.65 1005.72 1004.38 1002.80 1001.19 999.76 998.65 997.95 997.66 997.76 998.16 998.76 999.46 1000.21 1000.97 1001.75 1002.55 1003.41 1004.31 1005.26 1006.20 1007.09 1007.86 1008.48 1008.90 1009.15 1009.25 1009.27 1009.29 1009.35 1009.50 1009.76 1010.11 1010.51 1010.91 1011.27 1011.56 1011.77 1011.90 1012.00 1012.09 1012.21 1012.38
1002.07 1003.46 1004.80 1005.90 1006.58 1006.71 1006.27 1005.30 1003.92 1002.31 1000.69 999.24 998.10 997.35 997.01 997.03 997.35 997.87 998.50 999.18 999.90 1000.65 1001.45 1002.32 1003.26 1004.25 1005.24 1006.19 1007.03 1007.72 1008.21 1008.53 1008.70 1008.79 1008.86 1008.98 1009.18 1009.49 1009.88 1010.33 1010.78 1011.19 1011.51 1011.75 1011.90 1011.99 1012.07 1012.15 1012.27
1001.67 1003.04 1004.33 1005.36 1005.97 1006.06 1005.59 1004.64 1003.30 1001.77 1000.23 998.85 997.76 997.02 996.66 996.62 996.85 997.26 997.77 998.35 998.98 999.66 1000.42 1001.26 1002.20 1003.21 1004.25 1005.24 1006.14 1006.89 1007.46 1007.86 1008.11 1008.28 1008.43 1008.62 1008.89 1009.26 1009.71 1010.21 1010.71 1011.16 1011.53 1011.79 1011.95 1012.04 1012.09 1012.12 1012.17
1001.17 1002.44 1003.61 1004.51 1005.02 1005.06 1004.62 1003.74 1002.54 1001.18 999.82 998.60 997.63 996.97 996.62 996.54 996.68 996.96 997.34 997.78 998.28 998.86 999.54 1000.33 1001.24 1002.25 1003.30 1004.33 1005.28 1006.10 1006.75 1007.23 1007.57 1007.83 1008.07 1008.35 1008.69 1009.12 1009.63 1010.19 1010.73 1011.22 1011.62 1011.91 1012.08 1012.15 1012.16 1012.14 1012.10
1000.60 1001.68 1002.66 1003.40 1003.80 1003.80 1003.40 1002.65 1001.65 1000.53 999.43 998.45 997.67 997.12 996.82 996.72 996.77 996.93 997.17 997.46 997.82 998.28 998.87 999.60 1000.47 1001.46 1002.51 1003.56 1004.56 1005.43 1006.16 1006.73 1007.17 1007.53 1007.87 1008.23 1008.65 1009.14 1009.70 1010.30 1010.87 1011.39 1011.81 1012.10 1012.27 1012.33 1012.30 1012.21 1012.10
Thickness
5826 5827 5826 5817 5798 5791 5793 5813 5825 5824 5827 5836 5837 5831 5819 5810 5801 5791 5817 5829 5828 5822 5816 5812 5809 5807 5805 5803 5801 5799 5797 5795 5794 5792 5790 5789 5788 5786 5785 5784 5782 5781 5780 5780 5778 5777 5777 5776 5775
5834 5834 5824 5810 5791 5786 5796 5819 5822 5826 5835 5842 5840 5834 5823 5816 5822 5819 5822 5827 5828 5823 5817 5812 5808 5806 5804 5802 5800 5798 5796 5795 5793 5791 5790 5788 5787 5786 5784 5783 5782 5781 5780 5779 5777 5777 5776 5775 5775
5836 5837 5818 5806 5797 5794 5801 5823 5828 5837 5845 5842 5835 5833 5824 5816 5823 5822 5825 5830 5828 5823 5817 5811 5808 5805 5803 5801 5799 5797 5795 5794 5792 5791 5789 5788 5787 5785 5784 5783 5781 5780 5779 5778 5777 5776 5775 5775 5774
5836 5830 5819 5807 5801 5814 5823 5832 5839 5838 5842 5845 5837 5825 5823 5829 5829 5828 5831 5831 5826 5821 5816 5811 5807 5805 5802 5800 5798 5797 5795 5793 5791 5790 5789 5788 5786 5785 5784 5782 5781 5780 5779 5777 5776 5775 5775 5774 5774
5838 5822 5806 5804 5811 5827 5838 5844 5845 5837 5834 5838 5834 5818 5815 5829 5835 5833 5832 5830 5825 5820 5816 5811 5807 5804 5802 5800 5798 5796 5795 5793 5791 5790 5788 5787 5786 5785 5783 5782 5781 5780 5778 5777 5776 5775 5774 5774 5773
5827 5820 5802 5802 5814 5832 5843 5849 5846 5838 5836 5837 5832 5820 5815 5831 5832 5831 5832 5830 5828 5823 5817 5811 5808 5805 5802 5800 5798 5796 5794 5793 5791 5789 5788 5786 5785 5784 5784 5782 5781 5780 5778 5777 5775 5775 5774 5773 5773
5823 5814 5808 5815 5817 5825 5839 5852 5844 5837 5833 5835 5838 5820 5816 5827 5832 5833 5831 5830 5828 5825 5819 5813 5809 5805 5802 5800 5798 5795 5794 5792 5791 5789 5787 5786 5785 5784 5783 5782 5781 5780 5778 5777 5776 5774 5773 5773 5773
5843 5826 5816 5820 5817 5821 5843 5850 5849 5842 5836 5848 5846 5822 5813 5825 5833 5832 5830 5828 5826 5823 5820 5816 5812 5808 5804 5800 5798 5796 5794 5792 5791 5789 5787 5786 5785 5784 5783 5782 5781 5780 5778 5777 5776 5775 5774 5773 5773
5851 5821 5810 5819 5821 5826 5845 5844 5847 5854 5845 5843 5843 5836 5832 5835 5834 5828 5823 5822 5821 5820 5819 5818 5814 5811 5808 5805 5801 5797 5794 5792 5791 5789 5788 5787 5786 5786 5784 5783 5782 5780 5779 5778 5776 5775 5774 5773 5773
5840 5813 5819 5836 5840 5840 5846 5845 5846 5845 5835 5832 5832 5835 5838 5835 5830 5823 5818 5816 5816 5816 5818 5818 5816 5813 5810 5808 5803 5800 5797 5795 5793 5791 5790 5789 5789 5788 5787 5785 5783 5781 5780 5778 5777 5776 5775 5774 5774
5844 5827 5838 5846 5853 5852 5847 5847 5853 5840 5826 5829 5826 5828 5832 5830 5827 5823 5820 5819 5818 5819 5818 5818 5816 5813 5811 5808 5805 5802 5800 5798 5795 5794 5792 5791 5790 5789 5787 5786 5784 5782 5781 5780 5779 5777 5776 5776 5776
5844 5846 5851 5853 5859 5854 5850 5849 5847 5841 5838 5846 5843 5839 5834 5829 5826 5824 5822 5821 5821 5819 5817 5817 5816 5812 5810 5808 5805 5803 5801 5799 5798 5795 5794 5793 5791 5789 5788 5787 5786 5784 5783 5782 5781 5779 5778 5778 5778
5843 5845 5855 5860 5860 5858 5855 5849 5846 5844 5851 5852 5847 5840 5834 5832 5829 5828 5828 5825 5822 5818 5817 5817 5815 5811 5809 5806 5804 5803 5801 5800 5799 5797 5795 5793 5791 5789 5789 5787 5786 5785 5784 5783 5782 5780 5780 5779 5778
5848 5849 5854 5858 5859 5859 5851 5849 5845 5843 5853 5847 5841 5836 5835 5833 5831 5829 5826 5823 5821 5819 5818 5818 5814 5812 5808 5805 5803 5802 5802 5800 5799 5797 5795 5793 5792 5790 5789 5787 5786 5785 5784 5783 5782 5781 5780 5779 5778
5855 5843 5845 5853 5857 5858 5853 5836 5839 5850 5851 5842 5839 5837 5835 5834 5833 5829 5827 5824 5823 5820 5819 5817 5815 5812 5807 5804 5803 5802 5802 5800 5798 5796 5795 5793 5792 5790 5789 5787 5785 5785 5784 5783 5782 5781 5780 5778 5778
5844 5833 5826 5847 5857 5860 5844 5816 5840 5853 5848 5839 5838 5837 5835 5834 5834 5832 5830 5827 5825 5822 5818 5816 5816 5811 5807 5804 5802 5802 5801 5800 5798 5796 5794 5792 5791 5790 5788 5786 5785 5785 5784 5783 5781 5780 5777 5776 5776
5826 5816 5823 5840 5859 5857 5844 5824 5841 5852 5847 5840 5839 5837 5835 5832 5832 5833 5832 5829 5826 5822 5818 5815 5814 5811 5808 5805 5803 5801 5800 5799 5798 5796 5794 5792 5790 5788 5786 5785 5784 5783 5782 5781 5780 5778 5776 5774 5773
5818 5824 5829 5835 5854 5853 5841 5835 5844 5852 5848 5842 5842 5840 5836 5832 5832 5834 5833 5831 5827 5823 5819 5816 5813 5811 5809 5806 5802 5800 5799 5798 5797 5795 5793 5791 5789 5787 5785 5784 5783 5782 5780 5779 5777 5776 5775 5773 5772
5836 5831 5829 5841 5859 5848 5839 5838 5843 5850 5847 5844 5842 5839 5836 5834 5837 5837 5834 5831 5827 5822 5818 5815 5812 5810 5807 5803 5800 5797 5795 5796 5796 5795 5793 5790 5787 5785 5784 5783 5782 5780 5779 5777 5776 5774 5772 5770 5771
5834 5827 5828 5844 5859 5850 5839 5839 5848 5850 5849 5848 5844 5841 5838 5835 5834 5833 5832 5830 5825 5821 5817 5815 5812 5810 5807 5804 5802 5800 5798 5796 5796 5794 5792 5789 5787 5785 5784 5781 5780 5779 5777 5775 5774 5772 5769 5768 5769
5833 5830 5832 5835 5848 5850 5836 5827 5839 5849 5854 5851 5849 5847 5844 5839 5834 5832 5830 5829 5826 5822 5819 5816 5812 5810 5807 5805 5802 5800 5797 5794 5793 5790 5789 5788 5786 5784 5782 5781 5779 5778 5777 5774 5772 5771 5767 5764 5766
5825 5846 5845 5840 5829 5820 5825 5803 5827 5841 5843 5845 5846 5846 5844 5842 5839 5834 5831 5828 5826 5825 5822 5817 5813 5810 5807 5805 5800 5796 5791 5788 5788 5789 5788 5787 5785 5783 5782 5780 5778 5776 5775 5773 5772 5771 5768 5765 5761
5837 5852 5845 5839 5826 5816 5823 5810 5820 5838 5831 5839 5845 5846 5846 5845 5841 5835 5832 5829 5828 5827 5823 5818 5813 5809 5806 5803 5799 5795 5792 5791 5790 5790 5787 5785 5783 5782 5781 5779 5777 5775 5774 5772 5771 5769 5767 5765 5761
5852 5845 5839 5835 5822 5797 5816 5812 5810 5830 5835 5839 5844 5845 5846 5845 5842 5837 5835 5831 5827 5827 5823 5818 5811 5807 5805 5802 5798 5794 5791 5789 5786 5785 5783 5782 5780 5780 5779 5777 5775 5773 5772 5770 5769 5768 5765 5763 5761
5846 5822 5799 5790 5787 5793 5822 5815 5816 5840 5850 5846 5842 5842 5842 5844 5841 5836 5833 5829 5826 5824 5821 5817 5811 5805 5804 5801 5797 5795 5791 5788 5784 5783 5782 5779 5778 5777 5776 5775 5773 5771 5770 5769 5767 5765 5763 5761 5759
5836 5827 5795 5780 5783 5798 5820 5812 5826 5850 5854 5853 5849 5844 5842 5840 5841 5836 5832 5829 5826 5824 5821 5816 5810 5805 5803 5800 5797 5794 5791 5788 5786 5784 5782 5779 5778 5777 5776 5773 5771 5769 5768 5766 5764 5763 5761 5759 5757
5831 5827 5836 5815 5809 5797 5807 5817 5828 5844 5844 5845 5843 5841 5838 5838 5838 5835 5831 5828 5826 5822 5820 5816 5810 5805 5802 5799 5796 5793 5790 5787 5785 5783 5781 5779 5777 5777 5774 5771 5769 5766 5764 5763 5761 5759 5757 5756 5755
5846 5838 5827 5811 5786 5780 5797 5808 5810 5820 5828 5835 5835 5835 5836 5838 5837 5835 5832 5829 5826 5824 5820 5816 5811 5805 5802 5798 5795 5793 5789 5786 5784 5781 5778 5776 5775 5773 5771 5768 5766 5764 5762 5760 5758 5756 5755 5753 5752
5834 5831 5825 5819 5810 5787 5781 5797 5833 5828 5835 5834 5836 5838 5838 5837 5835 5833 5830 5828 5826 5822 5817 5812 5808 5804 5800 5797 5793 5790 5787 5784 5781 5777 5775 5773 5771 5769 5766 5765 5762 5760 5758 5756 5754 5753 5752 5749 5748
5838 5832 5827 5805 5796 5800 5791 5795 5839 5842 5842 5838 5837 5840 5839 5837 5835 5831 5827 5824 5822 5818 5813 5808 5805 5801 5798 5795 5791 5787 5784 5780 5777 5773 5771 5769 5766 5764 5762 5761 5758 5756 5754 5752 5750 5748 5747 5746 5743